Location: Eisingen in Unterfranken
(49.7591°N, 9.8347°E)
Time: 08:01:55
(UTC+01:00)

Envisat - Pass Details

Date: 28 November 2022
Orbit: 763 x 765 km, 98.2° (Epoch: 04 February)

Event Time Altitude Azimuth Distance (km) Brightness Sun altitude
Rises 05:05:26 0° 11° (NNE) 3,247 6.4 -26.2°
Reaches altitude 10° 05:07:46 10° 9° (N) 2,316 5.5 -25.8°
Enters shadow 05:11:35 48° 346° (NNW) 998 3.4 -25.2°
